Погода в Элисте

Погода в Элисте : погода сейчас, прогноз погоды и архив. Всё, что Вы хотите узнать о погоде в Элисте!

Поиск расширенной информации на нашем сайте:

Другие новости

Новости СМИ2

Главная страница сайта

Новости сайта

03.07.2017

Напоминаем, что на нашем специализированном сайте Метеоцентр.Азия вы можете получить высокодетализированные автоматические прогнозы погоды по пунктам России, СНГ и мира в авиационном формате (включающие направление и скорость ветра, видимость, явления погоды, количество и форму облачности, нижнюю и верхнюю границу облачности).


Погода в Элисте - сегодня

Время (UTC), дата Ветер
(°,м/с) 
Видим.   Явления Облачность Т
(°С)
Тd
(°С)
f(%) Тe
(°С)
Pmin
(гПа)
dP
(гПа)
Po
(мм)
O2
(г/м3)
Тmin Tmax R s Состояние
почвы
18 14.02.18 120 (ЮВ) 10 км  {снег}  10/10 200 м 
[St]
-5.1 -6.6 89 -9  1028.1  0.8  752  310           
21 14.02.18 110 (В) 10 км    10/10 100 м 
[St]
-5 -6.4 90 -8  1029.5  0.8  753  310           
00 15.02.18 100 (В) 10 км    10/10 100 м 
[St]
-5.1 -6.5 90 -8  1029.4  753  310           
03 15.02.18 080 (В) 2000 м  дымка  10/10 100 м 
[St]
-5.4 -6.8 90 -9  1030.3  0.8  754  311  -5.4         
06 15.02.18 080 (В) 4000 м  дымка  10/10 200 м 
[St]
-5.7 -7.2 89 -10  1031.9  1.5  755  311  -5.8         
09 15.02.18 080 (В) 10 км    10/10 600 м 
[St]
-4.5 -6.1 89 -9  1032.8  756  310           
12 15.02.18 090 (В) 20000 м    10/8 600 м средняя 
[Sc|Ac As]
-2.7 -6.3 76 -7  1032.8  0.1  756  308           
15 15.02.18 090 (В) 20000 м    10/8 600 м средняя 
[Sc|Ac As]
-2.3 -5.9 76 -6  1033.2  0.5  756  308    -2.3       
18 15.02.18 120 (ЮВ) 10 км    6/3 600 м средняя, верхняя 
[Sc|Ac trans|Ci fib]
-3.2 -7.4 73 -7  1034  0.7  757  309           
21 15.02.18 100 (В) 6{11}  10 км    3/0 средняя 
[Ac trans]
-6.2 -9.1 80 -11  1034.1  -0.2  756  313           
00 16.02.18 100 (В) 10 км    9/0 средняя 
[Ac trans]
-8.1 -9.9 87 -12  1034.5  0.2  757  315           
03 16.02.18 090 (В) 10 км    8/4 600 м средняя 
[Sc|Ac As]
-8.9 -10.7 87 -14  1034.7  0.1  757  316  -8.9      равномерный
мокрый или
старый снег
100% 
06 16.02.18 100 (В) 10 км    10/10 300 м 
[Sc]
-8.2 -9.9 88 -13  1035.2  0.5  757  315  -9         
09 16.02.18 090 (В) 20000 м    4/0 средняя, верхняя 
[Ac trans|Ci fib]
-4 -7.6 76 -9  1033.9  -0.8  756  310           
12 16.02.18 100 (В) 20000 м    10/10 600 м 
[Sc]
+0.4 -4 72 -3  1032.5  -1  756  305           
15 16.02.18 110 (В) 6{10}  10 км    10/10 600 м 
[Sc]
+0.3 -5.2 67 -3  1032.1  -0.4  755  305    +0.9       
18 16.02.18 100 (В) 7-11{11}  10 км    10/10 600 м 
[Sc]
-1.4 -7.6 63 -6  1031.5  -0.7  755  307           
21 16.02.18 100 (В) 7-10{12}  н/о    н/о 
-3.1 -6.9 75 -8  1030.9  -0.8  754  308           
00 17.02.18 090 (В) 6{11}  10 км    10/10 600 м 
[Sc]
-4.2 -7.1 80 -8  1029.9  -1.1  754  309           
03 17.02.18 090 (В) 10 км    10/10 600 м 
[Sc]
-5 -7.5 83 -9  1029.1  -0.9  753  310  -5      равномерный
мокрый или
старый снег
100% 
06 17.02.18 090 (В) 10 км    9/9 600 м 
[Sc]
-5.1 -7.6 83 -10  1028.6  -0.5  752  310  -5.6         
09 17.02.18 090 (В) 10 км    10/10 600 м 
[Sc|Ac trans]
-2.9 -6.3 77 -7  1026.8  -1.5  751  307           
12 17.02.18 090 (В) 7{10}  10 км    10/10 600 м 
[Sc]
-1.9 -5.7 75 -6  1025.4  -1.3  750  305           
15 17.02.18 090 (В) 7{10}  10 км    10/10 600 м 
[Sc]
-1.5 -5.7 73 -6  1024.6  -0.7  750  304    -1.5       
18 17.02.18 110 (В) 7-10{10}  10 км    10/10 600 м 
[Sc]
-1.2 -4.5 78 -5  1024  -0.7  749  304           
Время (UTC), дата Ветер
(°,м/с) 
Видим.   Явления Облачность Т
(°С)
Тd
(°С)
f(%) Тe
(°С)
Pmin
(гПа)
dP
(гПа)
Po
(мм)
O2
(г/м3)
Тmin Tmax R s Состояние
почвы

Для получения пояснительной информации подведите курсор к названию столбца.

ПОГОДА в Элисте - архив

Всё, что Вы хотите узнать о погоде в Элисте - удобно и подробно!

Выберите нужную дату (начиная с 1 января 2015* года) и нажмите кнопку "Найти".
Будут отображены архивные сводки погоды по пункту Элиста, начиная с указанной даты.


Отображать данные в формате CSV (для использования в таблицах Excel)


Внимание! Наш архив погоды предназначен исключительно для личного некоммерческого использования в познавательных целях. Если Вам необходимы официальные справки о состоянии погоды (для производственных, юридических, коммерческих и т.п. целей), обращайтесь в органы Росгидромета.

*Примечание: данная дата относится к архиву по метеостанциям СССР (Россия, СНГ, Балтия).
Архив по метеостанциям Зарубежной Европы и Азии (кроме Китая) хранится 10 дней, по другим регионам земного шара (Китай, Африка, Америка, Австралия, Океания) - 1 день.

Элиста - район местоположения метеостанции


Название, широта, долгота, высота метеостанции:
Элиста 46.4°ш. 44.3°д. 155 м над ур. моря [Российская Федерация]

Дополнительная информация

В oтличие oт бoльшинства пoгoдных сайтoв мы публикуем пoдрoбную метеoинфoрмацию в детальнoм прoфессиoнальнoм фoрмате.

Характеристики температуры и влажнoсти вoздуха измеряются на высoте 2 м в тени вдали oт зданий и деревьев.
Скoрoсть ветра измеряется на высoте 10 м (на урoвне рoста челoвека скoрoсть ветра ниже в 1.5-2 раза). Если метеoстанция нахoдится в гoрoде или в лесу, тo скoрoсть ветра занижена на 2-4 м/с пo сравнению с oткрытым местoм. Скoрoсть ветра над акватoриями крупных рек и oзёр, а также на вершинах хoлмoв на 2-5 м/с выше, чем в oбычных услoвиях.
Атмoсфернoе давление в разных тoчках местнoсти мoжет значительнo oтличаться oт давления на метеoстанции, в зависимoсти oт услoвий рельефа (при пoдъёме на 10 м давление пoнижается примернo на 1 мм рт.ст.).